Weather reports worldwide

Advertisment
Holbeach, United Kingdom (3469): temperature & dewpoint: 15.08.2017 11:00:00 - 21.08.2017 11:00:00 (BST)Holbeach, United Kingdom (3469): temperature -20cm & temperature -100cm: 15.08.2017 11:00:00 - 21.08.2017 11:00:00 (BST)Holbeach, United Kingdom (3469): wind speed & gusts: 15.08.2017 11:00:00 - 21.08.2017 11:00:00 (BST)Holbeach, United Kingdom (3469): wind direction: 15.08.2017 11:00:00 - 21.08.2017 11:00:00 (BST)Holbeach, United Kingdom (3469): reduced air pressure: 15.08.2017 11:00:00 - 21.08.2017 11:00:00 (BST)Holbeach, United Kingdom (3469): visibility: 15.08.2017 11:00:00 - 21.08.2017 11:00:00 (BST)Holbeach, United Kingdom (3469): precipitation: 15.08.2017 11:00:00 - 21.08.2017 11:00:00 (BST)
Date & Time tt [°C] td [°C] tt -20cm [°C] tt -100cm [°C] ff [km/h] ff [kn] fx [km/h] fx [kn] dd ppp [hPa] vv [km] rr [mm]
21.08.2017 11:00:00 19,0 12,0 - - 18 10 - - S - 10 0,0
21.08.2017 10:00:00 17,4 12,4 16,4 16,0 9 5 - - S 1022,4 50 0,0
21.08.2017 09:00:00 15,9 12,9 - - 9 5 - - S 1022,4 35 0,0
21.08.2017 08:00:00 14,0 13,8 - - 5 3 - - SE 1022,4 19 0,0
21.08.2017 07:00:00 11,0 10,8 - - 8 4 - - S 1022,0 5 0,0
21.08.2017 06:00:00 11,0 10,9 - - 8 4 - - S 1021,7 5 0,0
21.08.2017 05:00:00 10,7 10,5 - - 8 4 - - S 1021,7 1,9 0,0
21.08.2017 04:00:00 10,1 9,8 - - 5 3 - - S 1022,0 6 0,0
21.08.2017 03:00:00 10,2 9,1 - - 5 3 - - SSW 1022,5 16 0,0
21.08.2017 02:00:00 11,4 10,2 - - 8 4 - - SSW 1022,5 35 0,0
21.08.2017 01:00:00 12,6 10,1 - - 5 3 - - WSW 1022,4 35 0,0
21.08.2017 00:00:00 14,8 11,1 - - 11 6 - - WSW 1022,4 50 0,0
20.08.2017 23:00:00 15,6 11,2 - - 11 6 - - WSW 1022,5 40 0,0
20.08.2017 22:00:00 15,4 11,6 - - 5 3 - - SSW 1022,3 45 0,0
20.08.2017 21:00:00 15,3 10,6 - - 4 2 - - S 1022,2 35 0,0
20.08.2017 20:00:00 17,0 10,2 - - 5 3 - - WSW 1021,9 30 0,0
20.08.2017 19:00:00 18,5 9,3 - - 9 5 - - W 1022,0 50 0,0
20.08.2017 18:00:00 19,0 8,0 - - 9 5 - - W 1022,0 45 0,0
20.08.2017 17:00:00 19,3 8,2 - - 13 7 - - W 1022,2 45 0,0
20.08.2017 16:00:00 19,8 9,1 - - 13 7 - - WSW 1022,3 40 0,0
20.08.2017 15:00:00 20,0 9,1 - - 16 9 - - W 1022,6 40 0,0
20.08.2017 14:00:00 19,4 8,5 - - 15 8 - - W 1022,9 50 0,0
20.08.2017 13:00:00 18,4 8,8 - - 16 9 - - W 1022,7 45 0,0
20.08.2017 12:00:00 18,7 9,5 - - 18 10 - - W 1022,7 29 0,0
20.08.2017 11:00:00 17,6 9,4 - - 21 11 - - W 1022,6 45 0,0
20.08.2017 10:00:00 16,6 10,9 16,2 16,2 21 11 - - W 1022,2 50 0,0
20.08.2017 09:00:00 14,6 11,3 - - 18 10 - - W 1022,0 45 0,0
20.08.2017 08:00:00 12,2 10,4 - - 18 10 - - WSW 1021,3 40 0,0
20.08.2017 07:00:00 10,5 9,5 - - 15 8 - - WSW 1020,9 26 0,0
20.08.2017 06:00:00 10,0 8,8 - - 16 9 - - WSW 1020,4 30 0,0
20.08.2017 05:00:00 11,1 9,3 - - 21 11 - - W 1019,9 40 0,0
20.08.2017 04:00:00 11,6 9,6 - - 18 10 - - WSW 1019,8 45 0,0
20.08.2017 03:00:00 11,7 9,8 - - 18 10 - - WSW 1019,5 40 0,0
20.08.2017 02:00:00 11,3 9,7 - - 18 10 - - WSW 1019,0 35 0,0
20.08.2017 01:00:00 11,9 9,7 - - 18 10 - - WSW 1018,9 50 0,0
20.08.2017 00:00:00 11,8 9,7 - - 18 10 - - WSW 1018,7 50 0,0
19.08.2017 23:00:00 12,5 10,0 - - 16 9 - - WSW 1018,5 50 0,0
19.08.2017 22:00:00 13,2 9,9 - - 21 11 - - WSW 1018,2 50 0,0
19.08.2017 21:00:00 13,6 9,8 - - 21 11 - - WSW 1017,5 45 0,0
19.08.2017 20:00:00 14,8 9,9 - - 21 11 - - W 1017,0 50 0,0
19.08.2017 19:00:00 16,2 9,3 - - 22 12 - - W 1016,5 50 0,0
19.08.2017 18:00:00 16,6 9,2 - - 22 12 52 28 W 1015,9 45 0,0
19.08.2017 17:00:00 16,7 9,2 - - 29 16 55 30 W 1015,7 45 0,0
19.08.2017 16:00:00 15,3 10,0 - - 37 20 63 34 WNW 1015,8 9 0,0
19.08.2017 15:00:00 18,1 8,2 - - 35 19 52 28 W 1015,1 50 0,0
19.08.2017 14:00:00 17,8 8,6 - - 28 15 50 27 W 1014,5 35 0,0
19.08.2017 13:00:00 17,8 9,5 - - 29 16 48 26 WSW 1014,4 40 0,0
19.08.2017 12:00:00 17,7 8,8 - - 34 18 52 28 W 1014,1 35 0,0
19.08.2017 11:00:00 17,2 10,5 - - 35 19 52 28 W 1013,9 27 0,0
19.08.2017 10:00:00 15,1 10,1 16,7 16,2 26 14 - - W 1014,0 24 0,0
19.08.2017 09:00:00 13,7 10,7 - - 22 12 - - WSW 1013,7 40 0,0
19.08.2017 08:00:00 13,3 11,0 - - 24 13 - - WSW 1013,2 35 0,0
19.08.2017 07:00:00 11,7 10,6 - - 21 11 - - WSW 1012,3 35 0,0
19.08.2017 06:00:00 10,9 9,8 - - 22 12 - - WSW 1011,8 45 0,0
19.08.2017 05:00:00 10,3 9,6 - - 16 9 - - WSW 1011,2 50 0,0
19.08.2017 04:00:00 9,1 8,5 - - 15 8 - - SW 1010,6 40 0,0
19.08.2017 03:00:00 8,9 8,3 - - 15 8 - - WSW 1010,4 35 0,0
19.08.2017 02:00:00 9,0 8,2 - - 11 6 - - SW 1010,1 40 0,0
19.08.2017 01:00:00 10,2 9,0 - - 16 9 - - WSW 1010,0 35 0,0
19.08.2017 00:00:00 11,3 8,6 - - 21 11 - - SW 1009,6 50 0,0
18.08.2017 23:00:00 12,8 9,5 - - 24 13 - - SW 1009,1 45 0,0
18.08.2017 22:00:00 13,7 9,5 - - 26 14 - - SW 1009,0 50 0,0
18.08.2017 21:00:00 14,1 10,2 - - 21 11 - - SSW 1009,0 45 0,0
18.08.2017 20:00:00 15,3 8,3 - - 21 11 - - WSW 1008,8 45 0,0
18.08.2017 19:00:00 16,5 10,1 - - 15 8 - - WSW 1008,4 45 0,0
18.08.2017 18:00:00 17,5 8,7 - - 31 17 50 27 WSW 1008,0 45 0,0
18.08.2017 17:00:00 19,1 8,9 - - 35 19 - - WSW 1007,9 50 0,0
18.08.2017 16:00:00 17,7 11,4 - - 21 11 - - WSW 1008,0 50 0,2
18.08.2017 15:00:00 16,8 6,3 - - 22 12 - - WNW 1008,1 50 0,0
18.08.2017 14:00:00 20,3 8,9 - - 29 16 46 25 WSW 1007,8 45 0,0
18.08.2017 13:00:00 17,9 9,4 - - 22 12 - - W 1008,3 45 0,0
18.08.2017 12:00:00 18,4 8,9 - - 29 16 - - W 1008,4 45 0,0
18.08.2017 11:00:00 17,9 11,5 - - 26 14 46 25 W 1008,5 23 0,0
18.08.2017 10:00:00 17,7 11,7 17,4 16,0 31 17 46 25 W 1008,4 10 0,0
18.08.2017 09:00:00 16,9 13,5 - - 31 17 - - WSW 1007,6 30 0,0
18.08.2017 08:00:00 15,7 14,3 - - 24 13 - - SW 1007,4 29 0,2
18.08.2017 07:00:00 14,9 13,7 - - 22 12 - - SSW 1007,4 14 0,0
18.08.2017 06:00:00 14,6 13,4 - - 24 13 - - SSW 1007,3 17 0,0
18.08.2017 05:00:00 14,9 13,9 - - 26 14 - - SSW 1007,3 13 0,0
18.08.2017 04:00:00 15,3 14,3 - - 26 14 - - SSW 1008,2 15 0,0
18.08.2017 03:00:00 14,5 13,7 - - 15 8 - - SSW 1008,4 11 0,0
18.08.2017 02:00:00 15,3 13,9 - - 22 12 - - SSW 1008,9 23 0,0
18.08.2017 01:00:00 15,6 13,6 - - 22 12 - - SSW 1009,3 30 0,0
18.08.2017 00:00:00 15,8 12,8 - - 24 13 - - SSW 1009,5 50 0,0
17.08.2017 23:00:00 17,7 12,9 - - 26 14 - - SSW 1008,8 40 0,0
17.08.2017 22:00:00 17,6 12,6 - - 21 11 - - SW 1009,3 50 0,0
17.08.2017 21:00:00 17,0 12,1 - - 21 11 - - SW 1009,3 50 0,0
17.08.2017 20:00:00 19,1 12,1 - - 21 11 - - SW 1009,3 45 0,0
17.08.2017 19:00:00 21,0 12,2 - - 29 16 - - SW 1009,1 35 0,0
17.08.2017 18:00:00 21,7 13,2 - - 34 18 48 26 WSW 1009,0 45 0,0
17.08.2017 17:00:00 22,4 14,0 - - 34 18 - - WSW 1008,7 50 0,0
17.08.2017 16:00:00 22,8 16,2 - - 24 13 - - W 1008,6 40 0,0
17.08.2017 15:00:00 23,6 18,4 - - 26 14 - - WSW 1008,5 29 0,0
17.08.2017 14:00:00 20,1 17,8 - - 29 16 50 27 WSW 1008,5 45 0,2
17.08.2017 13:00:00 22,0 17,4 - - 34 18 - - WSW 1008,1 10 0,0
17.08.2017 12:00:00 20,9 17,9 - - 26 14 - - SSW 1008,3 45 0,0
17.08.2017 11:00:00 19,8 18,5 - - 24 13 - - SSW 1008,4 35 0,2
17.08.2017 10:00:00 17,6 17,1 17,0 16,0 22 12 - - SSW 1008,8 26 0,0
17.08.2017 09:00:00 16,4 16,1 - - 21 11 - - SSW 1008,8 19 2,4
17.08.2017 08:00:00 15,9 15,5 - - 26 14 - - SSW 1008,7 17 0,6
17.08.2017 07:00:00 15,4 15,0 - - 22 12 - - S 1008,7 9 0,6
17.08.2017 06:00:00 14,8 14,3 - - 18 10 - - S 1008,9 10 0,2
17.08.2017 05:00:00 14,6 13,9 - - 21 11 - - S 1009,3 15 0,6
17.08.2017 04:00:00 14,4 13,7 - - 16 9 - - S 1010,2 18 0,4
17.08.2017 03:00:00 13,9 13,2 - - 16 9 - - S 1011,3 10 4,0
17.08.2017 02:00:00 14,3 12,9 - - 22 12 54 29 SSW 1012,1 10 1,6
17.08.2017 01:00:00 16,8 11,9 - - 18 10 - - S 1012,6 50 0,0
17.08.2017 00:00:00 16,8 11,5 - - 18 10 - - S 1013,4 50 0,0
16.08.2017 23:00:00 17,3 11,0 - - 21 11 - - SSW 1013,9 50 0,0
16.08.2017 22:00:00 17,7 10,7 - - 21 11 - - S 1014,3 50 0,0
16.08.2017 21:00:00 17,9 10,6 - - 21 11 - - SSW 1015,2 50 0,0
16.08.2017 20:00:00 19,2 10,4 - - 18 10 - - SSW 1015,0 45 0,0
16.08.2017 19:00:00 20,9 9,2 - - 26 14 - - SW 1015,5 45 0,0
16.08.2017 18:00:00 22,0 9,8 - - 26 14 - - SSW 1015,8 40 0,0
16.08.2017 17:00:00 22,3 9,0 - - 34 18 46 25 SSW 1016,3 30 0,0
16.08.2017 16:00:00 22,8 9,7 - - 31 17 48 26 SW 1016,8 35 0,0
16.08.2017 15:00:00 22,0 10,2 - - 29 16 - - SSW 1017,4 40 0,0
16.08.2017 14:00:00 21,5 10,5 - - 26 14 - - S 1017,8 45 0,0
16.08.2017 13:00:00 21,3 10,6 - - 28 15 - - SSW 1018,3 30 0,0
16.08.2017 12:00:00 20,1 11,6 - - 26 14 - - SSW 1019,0 50 0,0
16.08.2017 11:00:00 18,5 12,1 - - 18 10 - - SSW 1019,5 30 0,0
16.08.2017 10:00:00 16,9 12,5 16,7 16,0 13 7 - - SSW 1019,5 45 0,0
16.08.2017 09:00:00 15,0 12,0 - - 11 6 - - SSW 1019,4 35 0,0
16.08.2017 08:00:00 13,1 11,6 - - 9 5 - - SSW 1019,4 30 0,0
16.08.2017 07:00:00 9,9 9,4 - - 9 5 - - SSW 1019,4 30 0,0
16.08.2017 06:00:00 8,9 8,2 - - 9 5 - - SW 1019,0 26 0,0
16.08.2017 05:00:00 9,0 8,3 - - 8 4 - - SSW 1018,9 45 0,0
16.08.2017 04:00:00 9,0 8,0 - - 5 3 - - SW 1019,0 50 0,0
16.08.2017 03:00:00 9,5 8,3 - - 5 3 - - SW 1019,0 40 0,0
16.08.2017 02:00:00 10,0 8,3 - - 9 5 - - W 1018,8 50 0,0
16.08.2017 01:00:00 10,6 7,4 - - 5 3 - - W 1018,6 45 0,0
16.08.2017 00:00:00 13,6 9,8 - - 11 6 - - WNW 1018,6 50 0,0
15.08.2017 23:00:00 12,3 8,7 - - 8 4 - - WNW 1018,3 50 0,0
15.08.2017 22:00:00 14,6 9,3 - - 9 5 - - W 1017,8 50 0,0
15.08.2017 21:00:00 16,6 9,5 - - 9 5 - - W 1016,9 45 0,0
15.08.2017 20:00:00 19,8 9,3 - - 9 5 - - W 1016,0 40 0,0
15.08.2017 19:00:00 21,3 8,8 - - 13 7 - - W 1015,3 45 0,0
15.08.2017 18:00:00 21,8 8,8 - - 16 9 - - W 1014,9 50 0,0
15.08.2017 17:00:00 22,6 8,5 - - 21 11 - - W 1014,8 50 0,0
15.08.2017 16:00:00 22,3 9,6 - - 22 12 - - W 1014,5 50 0,0
15.08.2017 15:00:00 22,6 10,2 - - 22 12 - - W 1014,1 45 0,0
15.08.2017 14:00:00 21,9 11,5 - - 21 11 - - W 1013,8 50 0,0
15.08.2017 13:00:00 22,2 12,8 - - 18 10 - - W 1013,5 50 0,0
15.08.2017 12:00:00 21,3 13,7 - - 18 10 - - W 1013,4 35 0,0
15.08.2017 11:00:00 20,4 14,4 - - 16 9 - - W 1013,4 40 0,0

tt = temperature
td = dewpoint
tt -20cm = temperature -20cm
tt -100cm = temperature -100cm
ff = wind speed
fx = gusts
dd = wind direction
ppp = reduced air pressure
vv = visibility
rr = precipitation

Next stations